User: anonymous   Login
Location: Unspecified
(41.3228°N, 0.0000°E)
Time: 13:52:03
(UTC+00:00)
Language:

SNAP 1 - Orbit

View from above orbital plane
View from above orbital plane
View from above satellite
View from above satellite

Ground track
Ground track

The orbit is defined by the following mean orbital elements,

1 26386U          26087.92453913 +.00000000 +00000-0 +22517-3 0 00007
2 26386  97.7534  78.0103 0010363 157.8497 202.3162 14.74706308    01
Epoch (UTC): 28 March 2026 22:11:20
Eccentricity: 0.0010363
inclination: 97.7534°
perigee height: 639 km
apogee height: 653 km
right ascension of ascending node: 78.0103°
argument of perigee: 157.8497°
revolutions per day: 14.74706308
mean anomaly at epoch: 202.3162°

The dashed part of the orbit path shows where the satellite is in the earth's shadow,  

DLR